EJA225 KPBI-KBOS

Flight info

Callsign EJA225
Flight time N/A
Altitude 39000
Route SLIDZ2 LENDS GRUBR Y299 SEELO WAALT Q131 EARZZ JAMIE CONFR Q133 JFK ROBUC3
Aircraft CL60/M-SBDE1E2E3FGHIJ1J4J5J7M3RWXYZ/LB1V1D1

Departure

Time 2026-04-29 17:29
Airport Palm Beach International Airport (KPBI)

Arrival

Time N/A
Airport Boston Logan International Airport (KBOS)
Time Latitude Longitude Altitude Speed Heading
2026-04-29 16:56 26.67891 -80.09277 20 ft 0 kts 86°
2026-04-29 17:23 26.67892 -80.09275 20 ft 1 kts 85°
2026-04-29 17:24 26.67914 -80.09267 20 ft 6 kts 342°
2026-04-29 17:24 26.67962 -80.09303 20 ft 10 kts 355°
2026-04-29 17:24 26.68017 -80.09311 20 ft 10 kts 301°
2026-04-29 17:24 26.68064 -80.09387 20 ft 13 kts 306°
2026-04-29 17:25 26.68126 -80.09454 20 ft 12 kts 314°
2026-04-29 17:25 26.68154 -80.09551 20 ft 12 kts 271°
2026-04-29 17:25 26.68158 -80.09654 20 ft 14 kts 272°
2026-04-29 17:25 26.68164 -80.09779 20 ft 17 kts 273°
2026-04-29 17:26 26.68169 -80.09924 20 ft 20 kts 271°
2026-04-29 17:26 26.68177 -80.10093 20 ft 22 kts 272°
2026-04-29 17:26 26.68185 -80.10278 20 ft 25 kts 273°
2026-04-29 17:26 26.68194 -80.10471 20 ft 26 kts 273°
2026-04-29 17:27 26.68203 -80.10641 20 ft 21 kts 273°
2026-04-29 17:27 26.68208 -80.10758 20 ft 10 kts 273°
2026-04-29 17:27 26.68213 -80.10811 20 ft 7 kts 296°
2026-04-29 17:27 26.68269 -80.10831 20 ft 10 kts
2026-04-29 17:28 26.68312 -80.10822 20 ft 5 kts 40°
2026-04-29 17:28 26.68319 -80.10794 20 ft 0 kts 91°
2026-04-29 17:28 26.68316 -80.10711 20 ft 45 kts 93°
2026-04-29 17:28 26.68283 -80.09959 21 ft 141 kts 93°
2026-04-29 17:29 26.68239 -80.08754 619 ft 165 kts 89°
2026-04-29 17:29 26.68243 -80.07465 1333 ft 168 kts 90°
2026-04-29 17:29 26.68230 -80.06159 1765 ft 177 kts 89°
2026-04-29 17:29 26.68357 -80.05205 1897 ft 195 kts 70°
2026-04-29 17:30 26.69164 -80.03252 2269 ft 223 kts 64°
2026-04-29 17:30 26.69898 -80.01603 2497 ft 245 kts 64°
2026-04-29 17:30 26.70670 -79.99878 2884 ft 258 kts 64°
2026-04-29 17:30 26.71502 -79.98032 3493 ft 274 kts 62°
2026-04-29 17:31 26.72612 -79.96298 4662 ft 278 kts 50°
2026-04-29 17:31 26.73834 -79.94721 6028 ft 274 kts 49°
2026-04-29 17:31 26.75075 -79.93132 7328 ft 274 kts 48°
2026-04-29 17:31 26.76322 -79.91534 8488 ft 279 kts 47°
2026-04-29 17:32 26.77576 -79.89919 9555 ft 284 kts 46°
2026-04-29 17:32 26.78893 -79.88233 10607 ft 290 kts 46°
2026-04-29 17:32 26.80223 -79.86523 11395 ft 305 kts 45°
2026-04-29 17:32 26.81664 -79.84679 11896 ft 328 kts 45°
2026-04-29 17:33 26.83182 -79.82721 12705 ft 339 kts 45°
2026-04-29 17:33 26.84757 -79.80708 13600 ft 346 kts 45°
2026-04-29 17:33 26.86344 -79.78643 14470 ft 354 kts 46°
2026-04-29 17:33 26.87974 -79.76533 15115 ft 366 kts 46°
2026-04-29 17:34 26.89649 -79.74355 16012 ft 370 kts 46°
2026-04-29 17:34 26.91329 -79.72171 16843 ft 375 kts 46°
2026-04-29 17:34 26.93109 -79.70044 17618 ft 378 kts 40°
2026-04-29 17:34 26.95036 -79.68012 18379 ft 383 kts 39°
2026-04-29 17:35 26.98315 -79.64563 19532 ft 393 kts 40°
2026-04-29 17:35 27.00998 -79.61735 20424 ft 400 kts 40°
2026-04-29 17:35 27.03016 -79.59606 21133 ft 404 kts 40°
2026-04-29 17:36 27.05066 -79.57442 21851 ft 406 kts 40°
2026-04-29 17:36 27.07137 -79.55254 22476 ft 411 kts 40°
2026-04-29 17:36 27.09228 -79.53045 23074 ft 416 kts 40°
2026-04-29 17:36 27.11352 -79.50799 23661 ft 420 kts 41°
2026-04-29 17:37 27.13502 -79.48524 24292 ft 423 kts 41°
2026-04-29 17:37 27.15660 -79.46238 24906 ft 426 kts 41°
2026-04-29 17:37 27.17801 -79.43970 25464 ft 429 kts 41°
2026-04-29 17:37 27.19980 -79.41659 26015 ft 432 kts 41°
2026-04-29 17:38 27.22160 -79.39346 26494 ft 436 kts 41°
2026-04-29 17:38 27.24376 -79.36995 26990 ft 440 kts 41°
2026-04-29 17:38 27.26608 -79.34624 27536 ft 441 kts 42°
2026-04-29 17:38 27.28841 -79.32251 28202 ft 438 kts 42°
2026-04-29 17:39 27.31035 -79.29918 28852 ft 436 kts 42°
2026-04-29 17:39 27.33241 -79.27570 29527 ft 433 kts 42°
2026-04-29 17:39 27.35397 -79.25274 30180 ft 430 kts 42°
2026-04-29 17:39 27.37575 -79.22955 30771 ft 428 kts 42°
2026-04-29 17:40 27.39723 -79.20666 31310 ft 428 kts 42°
2026-04-29 17:40 27.41885 -79.18360 31863 ft 426 kts 42°
2026-04-29 17:40 27.44010 -79.16093 32396 ft 425 kts 42°
2026-04-29 17:40 27.46159 -79.13799 32879 ft 424 kts 42°
2026-04-29 17:41 27.48274 -79.11540 33369 ft 423 kts 41°
2026-04-29 17:41 27.50404 -79.09263 33849 ft 422 kts 41°
2026-04-29 17:41 27.52540 -79.06979 34308 ft 421 kts 41°
2026-04-29 17:41 27.54654 -79.04717 34739 ft 421 kts 41°
2026-04-29 17:42 27.56764 -79.02458 35214 ft 418 kts 41°
2026-04-29 17:42 27.58871 -79.00201 35657 ft 417 kts 40°
2026-04-29 17:42 27.60961 -78.97961 36074 ft 415 kts 41°
2026-04-29 17:42 27.63068 -78.95752 36464 ft 413 kts 37°
2026-04-29 17:43 27.65353 -78.93808 36798 ft 410 kts 29°
2026-04-29 17:43 27.67810 -78.92249 37104 ft 406 kts 22°
2026-04-29 17:43 27.70438 -78.91075 37408 ft 403 kts 14°
2026-04-29 17:43 27.73134 -78.90321 37666 ft 400 kts
2026-04-29 17:44 27.75910 -78.89892 37961 ft 398 kts
2026-04-29 17:44 27.78623 -78.89514 38230 ft 398 kts
2026-04-29 17:44 27.81381 -78.89126 38498 ft 397 kts
2026-04-29 17:44 27.84127 -78.88740 38824 ft 395 kts
2026-04-29 17:45 27.86860 -78.88354 39050 ft 396 kts
2026-04-29 17:45 27.92393 -78.87579 39046 ft 406 kts
2026-04-29 17:46 27.98087 -78.86777 39032 ft 416 kts
2026-04-29 17:46 28.03870 -78.85963 39042 ft 424 kts
2026-04-29 17:47 28.09780 -78.85129 39031 ft 431 kts